Regional Weather Roundup
Issued by NWS Little Rock, AR

Home | Current Version | Previous Version | Text Only | Print | Product List | Glossary On
Versions: 1 2 3 4 5 6 7 8 9 10 11 12 13 14 15 16 17 18 19 20 21 22 23 24 25 26 27 28 29 30 31 32 33 34 35 36 37 38 39 40 41 42 43 44 45 46 47
000
ASUS44 KLZK 300805
RWRLZK

WEATHER ROUNDUP FOR ARKANSAS
NATIONAL WEATHER SERVICE LITTLE ROCK AR
300 AM CDT THU JUL 30 2015

NOTE: "FAIR" INDICATES FEW OR NO CLOUDS BELOW 12,000 FEET WITH NO
SIGNIFICANT WEATHER AND/OR OBSTRUCTIONS TO VISIBILITY.

ARZ001-003-010-029-300900-
NORTHWEST ARKANSAS

CITY           SKY/WX    TMP DP  RH WIND       PRES   REMARKS
FAYETTEVILLE   CLEAR     76  73  91 NE3       30.14S
FORT SMITH     MOCLDY    82  74  76 E5        30.07S HX  88
HARRISON       CLEAR     73  71  93 CALM      30.16S
BENTONVILLE    CLEAR     79  70  73 E7        30.15S
ROGERS         CLEAR     77  71  82 E10       30.15S
SILOAM SPGS    CLEAR     75  66  73 CALM      30.13S
HIGHFILL       CLEAR     77  72  84 E6        30.14F
$$

ARZ004-005-016-300900-
NORTH CENTRAL ARKANSAS

CITY           SKY/WX    TMP DP  RH WIND       PRES   REMARKS
BATESVILLE     CLEAR     79  73  83 CALM      30.08S
FLIPPIN        PTCLDY    77  68  73 N5        30.11S
MTN HOME       PTCLDY    74  70  87 CALM      30.12S
$$

ARZ040-041-300900-
WEST CENTRAL ARKANSAS

CITY           SKY/WX    TMP DP  RH WIND       PRES   REMARKS
MENA           CLEAR     77  72  83 CALM      30.09F
MOUNT IDA      MOCLDY    77  74  90 CALM      30.06S
$$

ARZ009-017-025-026-028-300900-
NORTHEAST ARKANSAS

CITY           SKY/WX    TMP DP  RH WIND       PRES   REMARKS
JONESBORO      CLEAR     79  73  82 N8        30.05S
NEWPORT        CLEAR     78  75  90 N8        30.06S
WALNUT RIDGE   CLEAR     77  70  78 N8        30.07S
BLYTHEVILLE    CLEAR     78  78 100 N8        30.04S
$$

ARZ022-023-033-042-044-300900-
CENTRAL ARKANSAS

CITY           SKY/WX    TMP DP  RH WIND       PRES   REMARKS
LITTLE ROCK    PTCLDY    83  75  77 NE3       30.04F HX  90
N LITTLE ROCK    N/A     80  77  89 NE7       30.04F HX  87
JACKSONVILLE   CLEAR     80  76  85 N6        30.05S HX  86
SEARCY         CLEAR     80  75  84 N3        30.07S HX  85
HOT SPRINGS    CLOUDY    82  73  74 CALM      30.06S HX  87
RUSSELLVILLE   CLEAR     80  74  81 CALM      30.07S HX  85
CLINTON        LGT RAIN  75  75 100 CALM      30.10S
$$

ARZ036-300900-
EAST ARKANSAS

CITY           SKY/WX    TMP DP  RH WIND       PRES   REMARKS
WEST MEMPHIS   CLEAR     78  76  93 NW3       30.02S
$$

ARZ050-053-066-070-073-300900-
SOUTHWEST ARKANSAS

CITY           SKY/WX    TMP DP  RH WIND       PRES   REMARKS
ARKADELPHIA    FAIR      78  78 100 CALM      30.03F
CAMDEN         CLEAR     77  75  94 CALM      30.02S FOG
TEXARKANA      CLEAR     79  70  74 CALM      30.03F
EL DORADO      CLEAR     78  73  84 CALM      30.02F
DE QUEEN       CLOUDY    77  75  93 CALM      30.03S
$$

ARZ056-057-069-300900-
SOUTHEAST ARKANSAS

CITY           SKY/WX    TMP DP  RH WIND       PRES   REMARKS
PINE BLUFF     PTCLDY    83  77  82 N6        30.03S HX  92
STUTTGART      CLEAR     81  73  78 N8        30.03F HX  85
MONTICELLO     CLEAR     80  79  96 CALM      30.01F HX  88

$$





USA.gov is the U.S. government's official web portal to all federal, state and local government web resources and services.